Theta_e
320 322 323 324 325 326 326 327 328 328 327 327 327 328 327 326 324 318 310 315 321 329 327 316 312 315 313 309 314 310 299 297 300 299 300 303 303 305 307 308 312 315 313 315 325
318 320 322 323 324 324 325 326 327 328 327 327 327 327 327 325 317 312 322 329 330 329 314 312 307 312 304 305 309 305 297 300 303 303 301 303 303 303 304 307 308 313 317 321 324
319 319 320 321 322 323 324 326 325 326 327 326 326 326 326 323 311 310 327 329 331 326 316 314 312 308 300 303 304 305 299 304 305 306 306 304 303 304 304 302 308 310 316 320 319
319 319 319 320 321 321 323 324 325 325 326 325 325 326 325 317 287 313 325 327 331 320 314 311 309 303 299 296 301 300 305 305 308 308 307 304 305 303 302 304 307 311 321 321 319
317 318 318 319 319 320 320 321 323 324 324 325 325 325 318 308 307 317 327 327 321 316 311 308 305 302 297 297 298 299 300 304 307 307 307 307 304 303 305 307 313 319 321 320 320
316 317 317 318 318 318 318 320 322 323 323 324 325 323 311 299 314 319 322 319 317 313 311 310 307 306 300 298 296 298 300 300 303 304 307 304 303 306 307 307 311 319 318 320 321
315 315 316 316 317 316 317 318 320 322 323 324 325 318 309 303 316 317 320 316 317 315 310 312 310 306 303 299 302 302 296 299 300 301 303 306 302 303 307 308 306 314 316 318 320
314 315 315 316 316 316 316 317 319 320 321 322 323 313 300 315 316 314 319 316 318 318 315 314 316 309 304 303 302 297 295 290 296 301 303 303 292 299 307 306 306 307 306 312 317
313 313 314 314 315 316 316 317 318 318 319 320 315 308 298 314 309 313 316 313 316 316 316 319 312 305 304 296 292 293 286 289 293 299 299 300 294 299 303 305 304 303 303 306 307
312 312 313 314 314 314 315 315 315 314 315 315 313 300 301 300 309 311 315 316 313 312 311 308 304 298 296 292 285 287 288 289 290 293 295 295 297 301 300 300 301 301 300 300 301
311 312 313 312 314 313 310 304 298 296 304 301 302 300 299 305 311 307 314 313 312 308 299 302 296 293 296 295 291 292 289 287 289 294 292 291 292 297 300 299 299 298 298 299 300
311 311 311 313 312 313 308 298 297 300 292 302 304 304 304 306 301 305 315 305 304 297 300 299 293 296 298 298 293 292 290 287 291 294 292 291 291 294 296 297 301 302 301 300 300
310 311 311 312 312 308 301 299 306 305 293 296 301 302 303 305 300 301 310 305 299 297 298 293 293 299 298 296 295 291 288 288 288 292 292 290 290 291 297 297 299 300 302 302 302
309 309 310 312 304 300 297 303 307 303 286 289 296 301 302 304 296 306 310 305 300 295 297 295 297 296 295 294 296 290 293 292 290 289 283 289 281 286 291 292 296 299 300 302 304
308 308 309 309 299 296 298 304 306 299 271 288 295 306 303 299 298 300 309 304 295 295 296 291 292 293 292 294 297 292 296 293 292 287 284 284 283 285 288 290 292 295 297 299 301
307 308 308 304 300 299 303 304 299 282 273 286 295 294 294 297 298 301 302 304 301 296 296 294 298 297 295 297 298 296 293 292 289 289 283 286 285 282 287 291 292 293 296 297 297
306 307 305 303 296 302 304 297 280 274 284 283 288 293 292 291 294 297 295 294 290 286 287 290 293 294 297 292 294 295 290 280 281 281 279 283 284 287 289 291 293 294 294 295 295
306 306 304 301 302 303 299 286 274 279 277 289 290 291 288 291 291 293 293 290 294 290 286 285 283 291 294 293 291 293 291 280 274 276 278 283 280 284 291 294 294 295 295 295 295
305 299 296 300 302 302 290 277 278 280 283 287 289 286 286 290 290 291 291 290 294 293 284 285 285 290 294 295 296 292 288 289 280 271 274 279 282 287 290 290 291 293 293 294 296
298 295 294 300 302 297 285 280 282 287 286 287 283 287 283 286 287 288 289 293 292 295 293 287 283 289 292 296 295 294 295 285 280 271 269 277 278 281 285 289 290 291 294 295 294
295 288 292 301 300 290 279 279 284 288 290 284 283 284 286 284 288 285 285 292 295 294 295 289 286 283 290 290 290 291 290 289 288 281 275 273 278 285 289 290 291 291 293 294 294
291 278 293 299 284 285 281 284 288 286 289 289 286 284 286 288 287 286 287 289 297 296 291 293 288 283 287 287 289 294 290 291 284 280 282 279 281 287 289 289 290 291 292 293 295
285 288 295 296 278 280 284 283 286 285 285 287 286 286 287 286 284 287 287 292 295 294 293 294 287 281 283 287 288 289 291 293 292 285 282 279 282 290 289 288 290 290 291 293 292
287 281 288 287 287 278 279 282 280 288 286 287 287 289 285 284 288 285 287 290 293 295 298 297 289 285 281 284 288 287 290 291 290 285 285 284 286 287 286 288 289 289 290 291 292
284 277 284 280 281 279 282 282 280 280 287 287 284 286 286 283 283 282 287 288 290 294 295 293 286 288 288 286 288 288 289 290 288 289 285 287 286 290 292 289 290 290 289 291 292
280 282 281 272 282 278 281 280 281 281 283 281 283 284 286 283 286 284 286 286 286 290 291 293 286 287 285 288 285 286 289 290 291 290 290 289 287 294 295 295 291 291 290 290 291
288 287 284 283 278 279 279 278 281 284 284 285 286 283 283 287 290 291 291 291 290 289 289 289 288 285 281 287 287 281 285 287 289 292 291 286 291 296 295 295 294 290 290 291 293
Wind_Speed
13 11 11 9 8 10 12 11 10 9 7 6 4 5 5 5 7 1 4 4 2 5 7 6 3 6 3 5 4 3 5 1 1 3 2 2 3 1 1 5 2 1 3 3 9
15 13 11 11 8 8 10 12 11 9 8 7 6 5 4 5 2 6 8 7 4 6 4 5 3 6 3 3 3 4 4 8 3 2 2 1 1 2 3 2 1 1 2 3 9
14 14 13 11 9 7 7 10 11 10 9 8 7 4 2 2 4 6 2 6 8 3 1 1 2 0 1 2 1 2 5 4 3 2 2 2 2 1 6 3 5 6 6 5 5
15 15 13 10 10 6 6 6 9 10 10 8 7 5 4 1 6 3 6 7 6 4 2 1 1 3 4 4 2 3 3 4 3 1 1 3 1 3 1 4 0 7 9 8 9
16 14 12 9 8 7 5 4 5 10 10 9 8 6 3 4 7 1 4 5 5 5 5 2 3 4 5 3 2 4 2 2 2 1 1 1 1 2 5 6 4 8 10 11 10
17 14 11 10 9 8 6 5 5 7 11 11 9 7 2 8 5 5 4 3 3 3 5 4 4 3 3 2 5 4 4 2 3 3 2 2 3 1 3 3 5 8 11 11 12
17 15 13 11 11 10 8 6 5 4 7 13 11 4 5 13 3 1 5 2 5 4 4 4 2 2 2 1 3 3 3 4 4 3 4 4 7 9 6 2 4 8 7 8 12
18 14 14 12 11 10 8 6 4 4 7 7 11 4 7 5 10 5 2 1 1 1 1 2 3 2 2 1 5 4 4 3 3 6 4 8 11 6 10 5 9 9 8 8 10
17 18 16 15 12 10 9 6 4 4 5 6 5 5 6 1 5 8 2 3 3 2 1 1 3 2 2 6 2 4 4 4 6 9 4 7 9 4 9 9 10 9 9 8 9
19 17 16 15 13 12 10 7 3 2 3 2 5 5 4 6 5 6 5 3 3 5 3 2 3 3 1 5 10 5 3 5 7 4 5 5 11 10 2 7 12 9 9 7 8
21 20 19 17 15 13 7 5 4 2 6 6 4 5 2 1 5 6 6 6 4 4 7 4 5 17 14 8 3 5 4 5 3 5 3 7 9 16 8 6 9 10 9 9 10
20 21 20 19 18 17 7 5 4 3 5 15 10 10 4 2 5 7 11 9 6 10 7 5 19 7 5 4 4 4 5 5 4 4 4 7 9 12 10 8 13 16 12 11 7
20 19 19 18 17 13 9 8 2 2 3 5 17 7 3 4 5 14 17 7 6 14 16 14 2 12 9 6 11 5 7 4 4 4 1 5 12 8 11 8 8 10 11 9 13
21 20 19 17 10 4 6 7 6 4 4 6 9 10 5 5 7 7 14 12 6 20 12 12 9 11 5 13 11 15 7 4 1 2 5 2 11 7 6 9 9 11 13 17 16
21 22 21 21 6 8 7 8 7 5 6 10 9 10 14 11 9 8 14 7 8 7 8 8 11 9 13 12 13 7 8 8 4 2 4 3 5 5 2 9 7 12 15 13 12
20 20 21 15 2 5 9 11 6 9 10 6 9 16 13 12 10 4 15 3 2 6 5 7 4 12 8 9 14 7 6 5 4 3 9 9 8 5 7 9 8 5 8 9 9
19 21 18 8 14 9 12 7 9 12 1 6 9 18 26 17 10 11 22 23 14 11 16 5 5 3 6 7 5 6 9 2 3 6 11 4 9 18 5 9 9 9 10 9 9
19 19 15 8 7 12 10 9 14 17 8 3 10 18 22 18 15 12 19 21 22 14 9 13 12 11 6 9 9 19 14 7 9 7 4 4 12 9 8 9 8 10 8 7 4
20 6 3 8 11 9 11 16 13 5 8 5 11 11 16 14 10 17 14 24 23 20 11 14 14 1 6 6 14 11 17 8 6 4 3 7 8 9 10 9 9 11 3 7 7
8 7 9 12 13 10 12 16 4 4 5 6 16 12 15 18 15 23 20 16 13 25 7 4 6 6 7 5 10 14 12 7 2 5 6 5 6 9 2 9 6 5 7 7 4
6 6 2 11 10 10 9 8 4 7 7 10 13 11 11 10 22 15 9 7 26 23 19 3 4 3 7 14 15 8 15 5 5 6 6 2 9 9 16 13 10 8 7 7 8
6 4 4 11 9 4 11 5 5 8 1 7 4 6 7 14 14 17 21 12 22 19 28 13 3 5 14 0 1 21 9 17 10 15 9 0 11 4 6 7 6 8 10 9 10
7 3 0 11 11 10 1 7 7 4 4 4 10 5 6 8 9 20 10 11 15 18 19 17 7 5 5 2 2 10 17 20 19 3 18 6 12 3 7 6 6 9 8 9 5
4 5 4 2 1 4 2 4 5 5 2 2 3 6 3 6 12 7 12 5 10 20 18 14 11 12 15 15 8 12 18 18 20 15 18 18 26 7 3 7 7 7 8 5 5
2 3 1 7 9 3 5 5 4 3 4 8 1 7 10 10 10 7 12 4 7 14 17 11 13 17 16 10 14 18 24 25 22 27 18 24 22 22 14 10 9 7 7 6 7
5 5 3 2 10 6 6 5 3 4 6 3 8 2 11 8 3 5 14 9 10 8 20 18 13 7 15 24 6 19 22 21 27 27 24 22 15 16 16 10 10 11 8 8 10
1 2 5 5 4 8 8 8 13 7 6 6 9 5 5 7 9 13 8 9 5 3 16 14 13 12 14 19 22 14 17 20 19 20 20 24 29 24 23 20 16 7 8 13 14
Wind_Direction
244 242 238 231 243 237 224 219 212 218 231 249 269 292 310 326 315 309 244 214 291 337 339 305 352 334 9 354 8 115 62 168 248 150 233 308 166 163 60 114 83 26 164 314 134
245 242 236 228 216 232 231 226 216 211 220 229 247 270 301 330 314 263 246 247 263 306 3 22 17 349 5 1 338 96 120 209 191 188 205 245 139 157 130 121 61 346 12 68 130
238 241 232 231 227 226 235 231 226 209 213 222 229 246 229 335 330 256 304 268 227 240 91 96 315 96 164 341 194 172 178 201 233 224 213 157 107 247 141 216 198 197 173 151 148
232 230 221 219 224 219 232 234 223 222 210 212 218 218 190 129 225 308 328 304 200 178 66 12 96 133 149 192 215 155 246 187 208 244 247 150 22 111 245 220 195 212 160 163 176
224 217 222 213 212 223 226 231 231 230 221 207 207 209 143 219 241 278 9 64 110 128 151 177 147 140 179 190 147 161 228 197 186 164 353 65 235 238 252 234 64 118 150 178 190
217 209 203 206 208 213 226 248 256 240 223 211 200 139 210 227 246 171 131 94 116 127 149 165 193 185 178 194 169 176 217 157 231 240 266 205 268 153 261 226 138 162 182 189 196
212 206 200 197 205 204 218 237 267 247 232 225 190 148 226 226 28 170 166 216 169 156 156 187 181 109 141 165 202 124 145 331 212 203 230 135 284 230 231 134 176 206 210 214 220
205 190 189 190 197 195 207 226 254 267 272 236 205 140 232 234 253 343 271 322 140 125 58 159 185 130 148 260 30 120 77 149 263 169 234 131 258 247 240 218 228 236 232 228 233
203 198 188 190 183 190 203 220 230 260 270 299 204 161 230 227 186 223 191 221 137 87 13 92 113 167 82 115 55 357 181 184 302 203 158 180 263 258 217 198 238 225 229 239 258
201 197 187 188 188 187 192 192 238 283 252 68 293 115 267 202 170 179 166 200 149 135 114 108 71 150 131 159 201 174 188 213 202 238 207 223 258 265 262 213 239 244 257 238 238
199 192 192 192 187 190 166 93 100 273 228 205 203 263 110 176 87 165 159 129 130 160 174 178 174 206 197 200 169 151 185 184 214 258 208 240 257 267 244 239 258 249 249 259 252
197 196 198 191 193 187 152 169 205 208 239 224 236 212 93 298 154 193 141 160 179 194 133 186 224 195 164 184 183 175 191 219 274 259 174 280 256 255 247 220 226 241 248 240 247
200 200 195 198 196 192 176 172 53 48 286 239 211 219 185 207 212 201 178 158 173 193 193 202 268 159 169 179 206 205 193 164 205 346 324 321 271 228 262 212 228 237 240 245 236
201 196 199 186 195 167 183 169 75 31 262 238 193 202 141 190 230 207 202 172 186 206 186 232 218 174 171 212 194 226 146 158 181 80 243 19 282 258 242 252 227 229 228 239 245
195 194 193 182 141 187 165 134 113 52 215 203 167 145 144 195 148 216 179 211 177 167 164 198 174 178 206 207 184 219 153 174 146 125 2 212 291 255 286 263 255 239 230 237 240
189 192 191 193 162 158 134 131 84 203 225 161 137 170 153 194 178 119 173 105 139 183 246 208 217 191 193 182 185 135 83 64 62 86 257 226 196 218 204 218 246 270 253 255 241
194 186 185 167 201 156 145 139 201 216 267 206 173 174 183 186 170 186 186 193 186 186 207 177 189 222 149 145 143 166 130 121 206 210 240 351 197 253 270 272 236 257 267 284 273
192 184 195 188 144 157 171 198 225 204 217 263 169 183 189 167 203 203 187 195 211 202 174 194 209 180 182 196 185 198 177 162 189 203 227 130 233 253 233 264 266 248 249 287 315
185 171 156 189 166 182 187 207 218 157 174 202 161 189 189 195 171 190 216 200 196 195 182 195 225 69 179 166 158 186 215 164 104 15 73 213 289 295 259 260 240 254 272 244 208
168 171 205 166 169 182 193 209 218 237 186 187 196 195 191 191 185 195 194 199 200 203 202 231 211 190 183 139 208 181 168 175 182 170 244 254 266 235 181 238 255 220 231 228 193
161 169 216 162 160 201 216 219 157 231 241 188 209 192 216 181 203 200 194 223 202 197 204 198 162 270 138 202 178 165 200 197 173 170 189 254 254 214 209 204 220 220 219 214 204
143 142 181 147 205 194 189 172 174 177 229 249 165 163 201 206 201 209 224 216 199 195 200 199 119 186 204 20 234 208 185 201 208 212 239 203 259 167 201 229 208 232 215 213 209
132 87 110 166 207 229 105 148 192 191 185 230 214 184 182 212 220 198 200 224 187 202 190 183 201 176 173 316 307 207 205 203 220 44 218 189 262 253 169 182 219 231 233 234 208
127 151 152 195 84 176 191 143 143 171 134 256 291 189 274 250 200 231 217 228 181 203 203 182 201 224 223 219 145 205 205 210 208 223 230 220 251 227 200 205 240 249 259 259 232
76 194 123 177 182 115 138 180 158 157 191 190 167 199 215 249 251 229 208 188 214 203 213 196 226 221 239 257 191 205 209 208 208 220 218 235 237 251 241 229 227 238 260 254 214
132 136 61 101 145 117 196 172 178 156 172 221 207 216 232 246 220 235 237 221 211 196 201 217 240 230 244 236 222 226 213 213 218 225 231 250 258 256 258 239 213 214 211 233 229
128 65 100 125 110 177 198 190 192 148 222 209 199 142 257 254 222 254 272 281 282 277 207 200 220 219 239 225 220 221 217 215 217 225 219 231 237 249 262 258 236 211 207 227 231